Location: Bijele Vode
(45.2833°N, 16.2000°E)
Time: 23:15:29
(UTC+00:00)

Lacrosse 5 rocket - Pass Details

Date: 21 January 2021
Orbit: 465 x 630 km, 57.0° (Epoch: 06 March)

Event Time Altitude Azimuth Distance (km) Brightness Sun altitude
Exits shadow 03:35:56 20° 51° (NE) 1,222 3.5 -29.7°
Drops below altitude 10° 03:37:50 10° 77° (ENE) 1,708 4.7 -29.4°
Sets 03:40:15 0° 92° (E) 2,562 6.0 -29.0°
